Date String (YYYY-MM-DD hh:mm:ss) UTC,Instrument flags,Ambient pressure (hPa),Sample flow (lpm),Bypass flow (lpm),Sample temperature (°C),Ambient temperature (°C),ASC tube jacket temperature (°C),LED temperature (°C),Box temperature (°C),Sample RH (%),Span deviation,Mass concentration (μg/m³),Mass concentration (μg/m³),Mass concentration (μg/m³)
DateTimeUTC,F1_M11,P_M11,Q1_M11,Q2_M11,T1_M11,T2_M11,T3_M11,T4_M11,T5_M11,U1_M11,ZSPAN_M11,X0_M11,X2_M11,X1_M11
2023-04-09 03:00:00,,0831.6,5.00,0.00,26.1,24.6,00.0,34.5,27.7,11.8,0000.0,0008.66,0003.18,0001.59
2023-04-09 03:01:00,,0831.7,5.00,0.00,26.1,24.6,00.0,34.5,27.7,11.8,0000.0,0008.53,0003.14,0001.59
2023-04-09 03:02:00,,0831.7,5.01,0.00,26.2,24.6,00.0,34.5,27.7,11.8,0000.0,0008.45,0003.11,0001.59
2023-04-09 03:03:00,,0831.6,4.98,0.00,26.1,24.6,00.0,34.5,27.8,11.6,0000.0,0008.78,0003.14,0001.59
2023-04-09 03:04:00,,0831.6,5.00,0.00,26.2,24.6,00.0,34.5,27.8,11.5,0000.0,0008.80,0003.14,0001.59
2023-04-09 03:05:00,,0831.7,5.00,0.00,26.2,24.6,00.0,34.5,27.8,11.7,0000.0,0009.18,0003.15,0001.59
2023-04-09 03:06:00,,0831.7,5.01,0.00,26.2,24.6,00.0,34.5,27.8,11.8,0000.0,0009.02,0003.13,0001.58
2023-04-09 03:07:00,,0831.7,5.01,0.00,26.1,24.6,00.0,34.5,27.8,11.7,0000.0,0009.03,0003.15,0001.58
2023-04-09 03:08:00,,0831.7,5.00,0.00,26.2,24.6,00.0,34.5,27.8,11.6,0000.0,0008.70,0003.14,0001.60
2023-04-09 03:09:00,,0832.1,5.00,0.00,26.2,24.6,00.0,34.5,27.8,11.7,0000.0,0008.72,0003.09,0001.60
2023-04-09 03:10:00,,0832.2,5.01,0.00,26.1,24.6,00.0,34.5,27.8,11.7,0000.0,0008.77,0003.13,0001.61
2023-04-09 03:11:00,,0832.1,5.00,0.00,26.1,24.6,00.0,34.5,27.7,11.7,0000.0,0009.06,0003.14,0001.62
2023-04-09 03:12:00,,0831.9,4.99,0.00,26.1,24.6,00.0,34.5,27.8,11.7,0000.0,0009.91,0003.15,0001.62
2023-04-09 03:13:00,,0832.0,4.99,0.00,26.1,24.5,00.0,34.5,27.8,11.8,0000.0,0010.30,0003.22,0001.63
2023-04-09 03:14:00,,0831.9,5.00,0.00,26.1,24.5,00.0,34.5,27.7,12.0,0000.0,0009.90,0003.20,0001.64
2023-04-09 03:15:00,,0831.9,5.00,0.00,26.1,24.5,00.0,34.5,27.7,12.1,0000.0,0009.74,0003.20,0001.64
2023-04-09 03:16:00,,0831.9,5.00,0.00,26.1,24.5,00.0,34.5,27.7,12.2,0000.0,0009.47,0003.23,0001.64
2023-04-09 03:17:00,,0831.9,5.01,0.00,26.1,24.5,00.0,34.5,27.7,12.1,0000.0,0009.49,0003.24,0001.65
2023-04-09 03:18:00,,0832.0,5.00,0.00,26.1,24.5,00.0,34.5,27.7,12.3,0000.0,0009.30,0003.25,0001.67
2023-04-09 03:19:00,,0832.0,4.99,0.00,26.1,24.5,00.0,34.5,27.7,12.3,0000.0,0009.34,0003.28,0001.68
2023-04-09 03:20:00,,0832.0,5.00,0.00,26.1,24.5,00.0,34.4,27.7,12.3,0000.0,0008.95,0003.30,0001.68
2023-04-09 03:21:00,,0832.0,5.00,0.00,26.1,24.5,00.0,34.5,27.7,12.4,0000.0,0008.40,0003.24,0001.68
2023-04-09 03:22:00,,0832.1,5.02,0.00,26.1,24.5,00.0,34.5,27.7,12.5,0000.0,0008.59,0003.23,0001.68
2023-04-09 03:23:00,,0832.1,4.99,0.00,26.1,24.5,00.0,34.4,27.7,12.6,0000.0,0007.73,0003.19,0001.68
2023-04-09 03:24:00,,0832.2,5.00,0.00,26.1,24.4,00.0,34.4,27.7,12.7,0000.0,0007.39,0003.15,0001.67
2023-04-09 03:25:00,,0832.2,4.99,0.00,26.1,24.4,00.0,34.4,27.7,12.5,0000.0,0007.36,0003.14,0001.67
2023-04-09 03:26:00,,0832.2,5.00,0.00,26.1,24.5,00.0,34.4,27.7,12.5,0000.0,0007.46,0003.14,0001.69
2023-04-09 03:27:00,,0832.2,5.01,0.00,26.1,24.5,00.0,34.4,27.7,12.5,0000.0,0007.70,0003.06,0001.70
2023-04-09 03:28:00,,0832.2,5.01,0.00,26.1,24.5,00.0,34.4,27.7,12.5,0000.0,0008.43,0003.06,0001.73
2023-04-09 03:29:00,,0832.2,5.00,0.00,26.1,24.5,00.0,34.4,27.7,12.5,0000.0,0008.61,0003.04,0001.74
2023-04-09 03:30:00,,0832.2,5.00,0.00,26.1,24.5,00.0,34.4,27.7,12.5,0000.0,0008.62,0003.05,0001.73
2023-04-09 03:31:00,,0832.2,4.99,0.00,26.1,24.5,00.0,34.4,27.7,12.6,0000.0,0008.66,0003.07,0001.73
2023-04-09 03:32:00,,0832.2,4.99,0.00,26.1,24.5,00.0,34.4,27.7,12.6,0000.0,0008.71,0003.10,0001.74
2023-04-09 03:33:00,,0832.2,5.00,0.00,26.1,24.5,00.0,34.4,27.7,12.6,0000.0,0008.88,0003.13,0001.75
2023-04-09 03:34:00,,0832.3,5.00,0.00,26.1,24.5,00.0,34.4,27.7,12.6,0000.0,0009.18,0003.19,0001.78
2023-04-09 03:35:00,,0832.3,5.00,0.00,26.1,24.5,00.0,34.4,27.7,12.6,0000.0,0009.58,0003.21,0001.78
2023-04-09 03:36:00,,0832.3,5.01,0.00,26.1,24.5,00.0,34.4,27.7,12.5,0000.0,0009.71,0003.22,0001.80
2023-04-09 03:37:00,,0832.4,5.00,0.00,26.1,24.5,00.0,34.4,27.7,12.3,0000.0,0009.81,0003.25,0001.80
2023-04-09 03:38:00,,0832.3,5.00,0.00,26.1,24.5,00.0,34.4,27.7,12.5,0000.0,0009.54,0003.30,0001.79
2023-04-09 03:39:00,,0832.4,4.98,0.00,26.1,24.5,00.0,34.4,27.7,12.4,0000.0,0009.00,0003.33,0001.79
2023-04-09 03:40:00,,0832.5,5.00,0.00,26.1,24.5,00.0,34.4,27.7,12.5,0000.0,0008.51,0003.33,0001.79
2023-04-09 03:41:00,,0832.4,5.00,0.00,26.1,24.5,00.0,34.4,27.7,12.5,0000.0,0008.38,0003.29,0001.80
2023-04-09 03:42:00,,0832.5,4.99,0.00,26.1,24.5,00.0,34.4,27.7,12.6,0000.0,0008.36,0003.25,0001.80
2023-04-09 03:43:00,,0832.5,5.00,0.00,26.1,24.5,00.0,34.4,27.7,12.5,0000.0,0008.95,0003.25,0001.81
2023-04-09 03:44:00,,0832.5,5.01,0.00,26.1,24.5,00.0,34.4,27.7,12.6,0000.0,0009.11,0003.25,0001.81
2023-04-09 03:45:00,,0832.5,5.01,0.00,26.1,24.5,00.0,34.4,27.7,12.6,0000.0,0009.07,0003.30,0001.80
2023-04-09 03:46:00,,0832.5,5.01,0.00,26.1,24.5,00.0,34.4,27.7,12.6,0000.0,0008.87,0003.30,0001.81
2023-04-09 03:47:00,,0832.6,5.00,0.00,26.1,24.5,00.0,34.4,27.7,12.6,0000.0,0008.68,0003.30,0001.81
2023-04-09 03:48:00,,0832.5,5.00,0.00,26.1,24.5,00.0,34.4,27.7,12.7,0000.0,0008.66,0003.31,0001.82
2023-04-09 03:49:00,,0832.5,4.99,0.00,26.1,24.5,00.0,34.4,27.7,13.0,0000.0,0008.55,0003.30,0001.84
2023-04-09 03:50:00,,0832.5,5.00,0.00,26.1,24.5,00.0,34.4,27.7,13.1,0000.0,0008.72,0003.28,0001.82
2023-04-09 03:51:00,,0832.5,5.00,0.00,26.1,24.5,00.0,34.4,27.7,13.3,0000.0,0008.97,0003.31,0001.81
2023-04-09 03:52:00,,0832.6,5.00,0.00,26.1,24.5,00.0,34.4,27.7,13.4,0000.0,0009.07,0003.35,0001.82
2023-04-09 03:53:00,,0832.6,5.00,0.00,26.1,24.5,00.0,34.4,27.7,13.3,0000.0,0009.01,0003.34,0001.81
2023-04-09 03:54:00,,0832.7,5.01,0.00,26.1,24.5,00.0,34.4,27.7,13.3,0000.0,0008.79,0003.33,0001.83
2023-04-09 03:55:00,,0832.7,5.01,0.00,26.1,24.5,00.0,34.4,27.6,13.4,0000.0,0008.15,0003.31,0001.85
2023-04-09 03:56:00,,0832.6,5.00,0.00,26.1,24.5,00.0,34.4,27.7,13.5,0000.0,0007.76,0003.27,0001.87
2023-04-09 03:57:00,,0832.7,4.99,0.00,26.1,24.5,00.0,34.4,27.7,13.6,0000.0,0007.71,0003.26,0001.88
2023-04-09 03:58:00,,0832.7,4.98,0.00,26.1,24.5,00.0,34.4,27.7,13.6,0000.0,0007.91,0003.25,0001.88
2023-04-09 03:59:00,,0832.7,5.01,0.00,26.1,24.4,00.0,34.4,27.7,13.6,0000.0,0008.02,0003.21,0001.89
